STARLINK-34596

Last updated on Sat Aug 02 2025 00:02:05 GMT+0000 (Coordinated Universal Time)

1 64732U 25144J 25213.58335648 .00083232 00000+0 20706-2 0 9997 2 64732 53.1602 124.9505 0001132 80.9100 182.1362 15.39583776 6094
UTC large
Height (km)
Speed (km/s)
/
Latitude / Longitude
Inclination (degrees)
Orbital Period (minutes)
Azimuth
Elevation
Range (km)
Doppler Factor

Next 0 passes for location: London (51.5072 / 0.1276)

Sorry there are no passes over London.